Miscellaneous Local Product
Issued by NWS North Platte, NE

Home | Current Version | Previous Version | Graphics & Text | Print | Product List | Glossary On
Versions: 1 2 3 4 5 6 7 8 9 10 11 12 13 14 15 16 17 18 19 20 21 22 23 24 25 26 27 28 29 30 31 32 33 34 35 36 37 38 39 40 41 42 43 44 45 46 47 48 49 50
000
AXUS43 KLBF 260010
MISLBF


WESTERN AND NORTH CENTRAL NEBRASKA HOURLY WEATHER ROUNDUP
NATIONAL WEATHER SERVICE NORTH PLATTE NE
600 PM CST SUN JAN 25 2015

***STATIONS NOT REPORTING VARIABLES SUCH AS SKY/WEATHER OR
PRESSURE ARE PROVIDED BY THE NEBRASKA DEPARTMENT OF
ROADS...RAWS...AND APRS NETWORKS...AND ARE NOT UNDER
NATIONAL WEATHER SERVICE QUALITY CONTROL***

...OBSERVATIONS IN AND NEAR THE EASTERN PANHANDLE OF NEBRASKA...

CITY           SKY/WX    TMP DP  RH WIND       PRES   REMARKS
PINE RIDGE     CLOUDY    43  33  68 SW9       29.99F
CHADRON        MOCLDY    46  33  60 W3        30.01R
ALLIANCE       CLOUDY    43  34  70 W7        30.03S
SIDNEY         CLEAR     46  30  53 W10       30.09R
$$

...OBSERVATIONS IN NORTH CENTRAL NEBRASKA...

CITY           SKY/WX    TMP DP  RH WIND       PRES   REMARKS
VALENTINE      CLOUDY    35  26  69 SW3       29.99F
THEDFORD       MOCLDY    43  24  48 CALM      30.03F
AINSWORTH      CLEAR     34  28  77 S5        30.01F WCI  30
O`NEILL        MOCLDY    37  33  84 W3        30.04F
ORD            PTCLDY    32  25  75 CALM      30.05F
BROKEN BOW     PTCLDY    36  27  69 CALM      30.04F
$$

...OBSERVATIONS IN SOUTHWEST NEBRASKA AND FAR NORTHEAST COLORADO...

CITY           SKY/WX    TMP DP  RH WIND       PRES   REMARKS
WRAY           FAIR      51  32  48 W6        30.10R
HOLYOKE        FAIR      50  32  50 N6        30.08S
IMPERIAL       PTCLDY    47  31  53 NW6       30.07S
OGALLALA       CLOUDY    46  34  62 N3        30.05S
NORTH PLATTE   CLEAR     42  21  43 N5        30.05S
MCCOOK         PTCLDY    47  16  29 CALM      30.07R
LEXINGTON      PTCLDY    39  28  66 E6        30.06S WCI  35
$$

...NORTH PLATTE AREA...

CITY           SKY/WX    TMP DP  RH WIND       PRES   REMARKS
AIRPORT        CLEAR     42  21  43 N5        30.05S
$$

...SOME WEATHER OBSERVATIONS FROM AROUND THE REGION...

CITY           SKY/WX    TMP DP  RH WIND       PRES   REMARKS
DENVER         PTCLDY    53  24  32 W8        30.13R
LARAMIE        CLEAR     40  25  55 W10       30.20R WCI  33
CHEYENNE       CLEAR     46  27  47 NW14      30.14R
SCOTTSBLUFF    CLEAR     47  34  60 W9        30.06R
RAPID CITY     MOCLDY    43  23  45 SE5       29.95S
PIERRE         MOCLDY    37  28  70 S5        29.97S WCI  33
WINNER         FAIR      36  29  75 S7        30.00F WCI  30
SIOUX FALLS    CLOUDY    33  30  88 W3        30.02F
OMAHA          CLOUDY    38  32  79 NW6       30.08R WCI  33
GRAND ISLAND   MOCLDY    37  27  67 NW8       30.09R WCI  31
KANSAS CITY    CLOUDY    37  31  78 N10       30.06R WCI  30
WICHITA        PTCLDY    47  28  47 N15       30.09R
HAYS           CLEAR     45  21  39 N6        30.10F
LIBERAL        CLEAR     54  25  32 NW7       30.15R
GOODLAND       CLEAR     46  31  55 N8        30.11R
$$



USA.gov is the U.S. government's official web portal to all federal, state and local government web resources and services.